Location: Brivio
(45.7333°N, 9.4500°E)
Time: 04:27:49
(UTC+00:00)

Cosmos 1356 - Pass Details

Date: 18 October 2019
Orbit: 447 x 449 km, 81.1° (Epoch: 14 November)

Event Time Altitude Azimuth Distance (km) Brightness Sun altitude
Rises 17:17:36 0° 177° (S) 2,435 7.2 -8.7°
Reaches altitude 10° 17:19:41 10° 171° (S) 1,569 6.1 -9.1°
Maximum altitude 17:22:59 47° 97° (E) 605 3.6 -9.6°
Drops below altitude 10° 17:26:19 10° 22° (NNE) 1,584 5.9 -10.2°
Sets 17:28:26 0° 17° (NNE) 2,461 6.9 -10.6°
